GW1362 Weather Reports


time (UTC)temp
F
wind
direction
speed
knots
gust
knots
rain 1hr
in
rain 24hr
in
rain mn
in
humidity
%
barometer
mb
20260906223538 93 231 1.7 5.2 0.00 0.00 0.00 17 1016.5
20260906223058 93 109 1.7 5.2 0.00 0.00 0.00 16 1016.5
20260906222534 93 0 0.0 4.3 0.00 0.00 0.00 16 1016.6
20260906222036 93 167 0.9 3.5 0.00 0.00 0.00 17 1016.7
20260906221605 94 101 0.9 2.6 0.00 0.00 0.00 16 1016.8
20260906221034 94 98 0.9 6.1 0.00 0.00 0.00 16 1016.8
20260906220537 95 242 0.0 6.1 0.00 0.00 0.00 16 1016.8
20260906220104 95 219 1.7 4.3 0.00 0.00 0.00 16 1017.0
20260906215542 95 217 1.7 4.3 0.00 0.00 0.00 15 1017.1
20260906215038 95 279 1.7 5.2 0.00 0.00 0.00 15 1017.2
20260906214602 94 256 0.9 5.2 0.00 0.00 0.00 16 1017.3
20260906214038 94 161 0.9 4.3 0.00 0.00 0.00 16 1017.4
20260906213539 93 232 1.7 4.3 0.00 0.00 0.00 17 1017.5
20260906213055 92 239 0.0 4.3 0.00 0.00 0.00 17 1017.6
20260906212538 92 239 1.7 7.0 0.00 0.00 0.00 17 1017.7
20260906212038 92 0 0.0 8.7 0.00 0.00 0.00 17 1017.7
20260906211604 93 159 1.7 8.7 0.00 0.00 0.00 16 1017.8
20260906211038 93 73 1.7 8.7 0.00 0.00 0.00 16 1017.8
20260906210538 92 224 2.6 7.0 0.00 0.00 0.00 17 1017.9
20260906210129 91 257 2.6 6.1 0.00 0.00 0.00 18 1018.2
20260906205535 91 284 1.7 5.2 0.00 0.00 0.00 18 1018.2
20260906205035 92 98 0.9 3.5 0.00 0.00 0.00 17 1018.2
20260906204600 92 167 0.9 5.2 0.00 0.00 0.00 16 1018.3
20260906204038 92 182 0.9 5.2 0.00 0.00 0.00 16 1018.4
20260906203538 93 146 1.7 5.2 0.00 0.00 0.00 16 1018.4
20260906203102 93 119 1.7 5.2 0.00 0.00 0.00 16 1018.5
20260906202534 94 81 2.6 5.2 0.00 0.00 0.00 15 1018.6
20260906202038 95 0 1.7 4.3 0.00 0.00 0.00 15 1018.6
20260906201557 95 32 1.7 4.3 0.00 0.00 0.00 15 1018.7
20260906201035 95 88 1.7 4.3 0.00 0.00 0.00 15 1018.8
20260906200535 95 88 1.7 5.2 0.00 0.00 0.00 15 1018.8
20260906200109 95 12 1.7 7.8 0.00 0.00 0.00 15 1018.7
20260906195539 94 352 3.5 7.8 0.00 0.00 0.00 16 1018.9
20260906195035 94 71 0.9 4.3 0.00 0.00 0.00 15 1019.0
20260906194600 94 351 0.9 5.2 0.00 0.00 0.00 16 1019.0
20260906194036 93 61 0.9 5.2 0.00 0.00 0.00 16 1019.1
20260906193536 92 16 1.7 6.1 0.00 0.00 0.00 17 1019.2
20260906193056 91 74 2.6 7.8 0.00 0.00 0.00 17 1019.2
20260906192538 92 123 2.6 7.8 0.00 0.00 0.00 16 1019.3
20260906192038 91 55 1.7 5.2 0.00 0.00 0.00 17 1019.6
20260906191604 91 124 0.9 6.1 0.00 0.00 0.00 17 1019.7
20260906191035 91 69 3.5 8.7 0.00 0.00 0.00 17 1019.8
20260906190535 93 99 4.3 8.7 0.00 0.00 0.00 16 1019.8
20260906190109 93 61 2.6 7.0 0.00 0.00 0.00 16 1019.9
20260906185535 93 72 2.6 7.0 0.00 0.00 0.00 16 1019.9
20260906185038 93 352 2.6 7.8 0.00 0.00 0.00 16 1019.9
20260906184626 93 56 1.7 7.8 0.00 0.00 0.00 16 1020.0
20260906184035 93 89 1.7 5.2 0.00 0.00 0.00 16 1020.2
20260906183535 93 352 2.6 7.0 0.00 0.00 0.00 16 1020.4
20260906183055 92 17 2.6 7.0 0.00 0.00 0.00 16 1020.5
20260906182534 92 306 1.7 5.2 0.00 0.00 0.00 17 1020.6
20260906182038 91 352 2.6 6.1 0.00 0.00 0.00 17 1020.8
20260906181603 91 65 1.7 7.0 0.00 0.00 0.00 18 1020.9
20260906181036 90 5 1.7 7.8 0.00 0.00 0.00 19 1021.0
20260906180536 90 13 3.5 7.8 0.00 0.00 0.00 19 1021.0
20260906175539 90 47 2.6 7.8 0.00 0.00 0.00 20 1021.1
20260906175122 89 106 1.7 7.0 0.00 0.00 0.00 22 1021.1
20260906174600 89 59 2.6 7.8 0.00 0.00 0.00 22 1021.3
20260906174041 89 63 0.9 7.8 0.00 0.00 0.00 22 1021.3
20260906173540 89 13 2.6 7.8 0.00 0.00 0.00 23 1021.5
20260906173101 88 12 1.7 5.2 0.00 0.00 0.00 24 1021.5
20260906172540 88 349 1.7 5.2 0.00 0.00 0.00 24 1021.4
20260906172039 87 5 1.7 4.3 0.00 0.00 0.00 25 1021.5
20260906171608 86 352 0.9 6.1 0.00 0.00 0.00 27 1021.5
20260906171039 85 360 1.7 6.1 0.00 0.00 0.00 27 1021.5
20260906170541 85 80 1.7 6.1 0.00 0.00 0.00 27 1021.5
20260906170111 84 64 0.9 6.1 0.00 0.00 0.00 30 1021.5
20260906165540 83 77 2.6 7.8 0.00 0.00 0.00 31 1021.7
20260906165040 83 67 2.6 7.8 0.00 0.00 0.00 32 1021.9
20260906164601 83 71 2.6 5.2 0.00 0.00 0.00 32 1021.9
20260906164039 82 348 0.9 5.2 0.00 0.00 0.00 32 1021.9
20260906163540 81 82 1.7 7.8 0.00 0.00 0.00 35 1022.1
20260906163058 80 36 2.6 7.8 0.00 0.00 0.00 35 1022.2
20260906162539 80 88 2.6 6.1 0.00 0.00 0.00 35 1022.2
20260906162039 80 96 3.5 6.1 0.00 0.00 0.00 35 1022.2
20260906161559 79 67 1.7 6.1 0.00 0.00 0.00 36 1022.3
20260906161038 78 59 0.9 6.1 0.00 0.00 0.00 37 1022.3
20260906160538 79 82 3.5 6.1 0.00 0.00 0.00 37 1022.2
20260906155539 78 350 0.9 3.5 0.00 0.00 0.00 37 1022.2
20260906155038 79 11 1.7 3.5 0.00 0.00 0.00 36 1022.2
20260906154559 79 63 0.9 3.5 0.00 0.00 0.00 36 1022.2
20260906154039 78 22 0.9 3.5 0.00 0.00 0.00 37 1022.1
20260906153541 77 5 0.9 4.3 0.00 0.00 0.00 39 1022.2
20260906153101 76 69 1.7 5.2 0.00 0.00 0.00 41 1022.3
20260906152539 75 9 0.9 6.1 0.00 0.00 0.00 43 1022.2
20260906152038 74 71 1.7 6.1 0.00 0.00 0.00 44 1022.2
20260906151604 73 67 0.9 4.3 0.00 0.00 0.00 45 1022.2
20260906151039 72 74 1.7 4.3 0.00 0.00 0.00 47 1022.1
20260906150540 71 0 0.9 2.6 0.00 0.00 0.00 50 1022.1
20260906150107 70 11 0.9 2.6 0.00 0.00 0.00 51 1022.2
20260906145543 70 59 0.9 2.6 0.00 0.00 0.00 52 1022.2
20260906145043 69 58 0.9 2.6 0.00 0.00 0.00 55 1022.2
20260906144609 68 84 0.0 2.6 0.00 0.00 0.00 58 1022.2
20260906144039 67 84 0.9 1.7 0.00 0.00 0.00 59 1022.4
20260906143721 65 84 0.9 1.7 0.00 0.00 0.00 63 1022.3
20260906061041 66 0 0.0 0.9 0.00 0.00 0.00 58 1020.4
20260906060538 66 0 0.0 0.9 0.00 0.00 0.00 58 1020.3
20260906060119 66 0 0.0 0.9 0.00 0.00 0.00 57 1020.2
20260906055538 66 0 0.0 0.9 0.00 0.00 0.00 57 1020.2
20260906055035 66 0 0.0 0.9 0.00 0.00 0.00 56 1020.2
20260906054557 67 0 0.0 0.9 0.00 0.00 0.00 56 1020.2
20260906054039 67 0 0.0 0.9 0.00 0.00 0.00 55 1020.3
20260906053537 67 0 0.0 0.9 0.00 0.00 0.00 55 1020.3
20260906053102 67 0 0.0 0.9 0.00 0.00 0.00 55 1020.3
20260906052537 68 0 0.0 1.7 0.00 0.00 0.00 54 1020.2
20260906052037 68 0 0.0 1.7 0.00 0.00 0.00 54 1020.2
20260906051609 68 84 0.0 1.7 0.00 0.00 0.00 54 1020.0
20260906051036 69 0 0.0 1.7 0.00 0.00 0.00 53 1020.0
20260906050536 69 0 0.0 1.7 0.00 0.00 0.00 52 1019.9
20260906045537 70 0 0.0 1.7 0.00 0.00 0.00 51 1020.0
20260906045037 70 0 0.0 1.7 0.00 0.00 0.00 50 1019.9
20260906044602 70 84 0.0 1.7 0.00 0.00 0.00 49 1019.9
20260906044036 70 0 0.0 0.9 0.00 0.00 0.00 48 1019.8
20260906043536 71 0 0.0 0.9 0.00 0.00 0.00 48 1019.9
20260906043105 71 0 0.0 0.0 0.00 0.00 0.00 47 1019.9
20260906042536 72 0 0.0 0.9 0.00 0.00 0.00 47 1019.9
20260906042036 72 0 0.0 1.7 0.00 0.00 0.00 47 1019.9
20260906041602 73 0 0.0 1.7 0.00 0.00 0.00 46 1019.9
20260906041038 74 84 0.0 1.7 0.00 0.00 0.00 45 1019.8
20260906040536 74 0 0.0 0.0 0.00 0.00 0.00 44 1019.7
20260906040101 75 0 0.0 0.0 0.00 0.00 0.00 43 1019.7
20260906035539 76 0 0.0 1.7 0.00 0.00 0.00 42 1019.6
20260906035037 76 0 0.0 1.7 0.00 0.00 0.00 40 1019.5
20260906034607 77 84 0.9 2.6 0.00 0.00 0.00 39 1019.5
20260906034036 77 0 0.0 3.5 0.00 0.00 0.00 38 1019.4
20260906033536 77 84 0.9 3.5 0.00 0.00 0.00 38 1019.3
20260906033107 77 89 1.7 3.5 0.00 0.00 0.00 38 1019.3
20260906032537 77 94 1.7 3.5 0.00 0.00 0.00 39 1019.2
20260906032036 77 103 0.9 2.6 0.00 0.00 0.00 39 1019.3
20260906031600 77 0 0.0 1.7 0.00 0.00 0.00 39 1019.2
20260906031037 77 44 0.0 1.7 0.00 0.00 0.00 40 1019.1
20260906030536 77 0 0.0 1.7 0.00 0.00 0.00 39 1019.1
20260906030113 77 0 0.0 1.7 0.00 0.00 0.00 41 1018.8
20260906025537 77 44 0.9 1.7 0.00 0.00 0.00 41 1018.7
20260906025037 77 0 0.0 1.7 0.00 0.00 0.00 42 1018.5
20260906024604 77 0 0.0 1.7 0.00 0.00 0.00 42 1018.4
20260906024039 77 0 0.0 1.7 0.00 0.00 0.00 43 1018.3
20260906023537 77 0 0.0 1.7 0.00 0.00 0.00 43 1018.2
20260906023109 77 0 0.0 1.7 0.00 0.00 0.00 43 1018.2
20260906022537 77 44 0.0 1.7 0.00 0.00 0.00 43 1018.0
20260906022039 77 0 0.0 0.0 0.00 0.00 0.00 43 1018.0
20260906021608 78 0 0.0 0.9 0.00 0.00 0.00 42 1018.0
20260906021118 78 0 0.0 0.9 0.00 0.00 0.00 41 1017.9
20260906020537 78 0 0.0 0.9 0.00 0.00 0.00 40 1017.8
20260906020103 79 0 0.0 0.0 0.00 0.00 0.00 40 1017.9
20260906015537 79 0 0.0 0.0 0.00 0.00 0.00 39 1017.8
20260906015036 80 0 0.0 0.0 0.00 0.00 0.00 39 1017.9
20260906014607 80 0 0.0 0.0 0.00 0.00 0.00 38 1017.8
20260906014038 81 0 0.0 0.9 0.00 0.00 0.00 38 1017.9
20260906013537 81 0 0.0 0.9 0.00 0.00 0.00 37 1017.8
20260906013103 82 0 0.0 1.7 0.00 0.00 0.00 36 1017.8
20260906012539 83 0 0.0 1.7 0.00 0.00 0.00 34 1017.8
20260906012038 84 44 0.0 1.7 0.00 0.00 0.00 33 1017.8
20260906011604 85 0 0.0 0.0 0.00 0.00 0.00 31 1017.7
20260906011039 86 0 0.0 0.9 0.00 0.00 0.00 31 1017.7
20260906010537 87 0 0.0 0.9 0.00 0.00 0.00 30 1017.7
20260906010108 87 0 0.0 0.0 0.00 0.00 0.00 29 1017.7
20260906005536 88 0 0.0 1.7 0.00 0.01 0.00 28 1017.7
20260906005039 88 0 0.0 1.7 0.00 0.01 0.00 26 1017.7
20260906004601 89 44 0.0 1.7 0.00 0.01 0.00 27 1017.7
20260906004037 89 0 0.0 1.7 0.00 0.01 0.00 26 1017.8
20260906003536 89 0 0.0 0.9 0.00 0.01 0.00 26 1017.8
20260906003056 90 0 0.0 1.7 0.00 0.01 0.00 26 1017.8
20260906002537 89 0 0.0 1.7 0.00 0.01 0.00 26 1017.8
20260906002037 89 0 0.9 1.7 0.00 0.01 0.00 26 1017.8
20260906001555 89 35 0.0 1.7 0.00 0.01 0.00 27 1017.8
20260906001038 89 36 0.0 2.6 0.00 0.01 0.00 27 1017.7
20260906000537 88 0 0.0 2.6 0.00 0.01 0.00 27 1017.7
20260906000109 88 36 0.9 2.6 0.00 0.01 0.00 27 1017.7
20260905235536 88 17 0.0 1.7 0.00 0.01 0.00 28 1017.8
20260905235036 89 0 0.0 2.6 0.00 0.01 0.00 28 1017.7
20260905234602 89 0 0.0 2.6 0.00 0.01 0.00 27 1017.7
20260905234037 89 17 0.9 3.5 0.00 0.01 0.00 27 1017.8
20260905233537 89 11 0.9 3.5 0.00 0.01 0.00 27 1017.8
20260905233109 88 0 0.9 3.5 0.00 0.01 0.00 28 1017.8
20260905232536 88 30 0.9 2.6 0.00 0.01 0.00 29 1017.8
20260905232035 88 19 0.0 2.6 0.00 0.01 0.00 29 1017.9
20260905231604 88 19 0.9 2.6 0.00 0.01 0.00 29 1017.9
20260905231041 88 45 0.0 3.5 0.00 0.01 0.00 28 1018.0
20260905230537 88 45 0.9 3.5 0.00 0.01 0.00 28 1018.0
20260905230106 88 42 0.9 2.6 0.00 0.01 0.00 28 1018.1
20260905225539 88 360 1.7 4.3 0.00 0.01 0.00 28 1018.1
20260905225038 88 360 0.9 5.2 0.00 0.01 0.00 28 1018.1
20260905224607 89 351 2.6 5.2 0.00 0.01 0.00 27 1018.1
20260905224035 89 342 1.7 5.2 0.00 0.01 0.00 28 1018.2